Weather History for KHAO - January, 2012

Change the Weather History Date:

Thursday, January 26, 2012

  Actual Average (KCVG) Record (KCVG)
Temperature  
Mean Temperature 40 °F 31 °F  
Max Temperature 46 °F 39 °F 69 °F (1967)
Min Temperature 35 °F 23 °F -9 °F (1897)
Degree Days  
Heating Degree Days 24 34  
Month to date heating degree days 884  
Since 1 July heating degree days 2803  
Cooling Degree Days 0 0  
Month to date cooling degree days 0  
Year to date cooling degree days 0  
Moisture  
Dew Point 38 °F    
Average Humidity 86    
Maximum Humidity 93    
Minimum Humidity 79    
Precipitation  
Precipitation 1.62 in 0.09 in 1.57 in (2012)
Month to date precipitation 2.51  
Year to date precipitation 2.51  
Snow  
Snow 0.00 in 0.30 in 5.70 in (1978)
Month to date snowfall 5.3  
Since 1 July snowfall 10.9  
Snow Depth -    
Sea Level Pressure  
Sea Level Pressure 29.75 in    
Wind  
Wind Speed 4 mph (NNE)    
Max Wind Speed 9 mph    
Max Gust Speed -    
Visibility 2 miles    
Events Fog , Rain    
T = Trace of Precipitation, MM = Missing Value Source: NWS Daily Summary

Daily Weather History Graph

Daily Weather History Graph

Search for Another Location

Airport or City:

Trip Planner

Search our weather history database for the weather conditions in past years. The results will help you decide how hot, cold, wet, or windy it might be!

Date:

Astronomy

Jan. 26, 2012 Rise Set
Actual Time 7:50 AM EST 5:50 PM EST
Civil Twilight 7:21 AM EST 6:19 PM EST
Nautical Twilight 6:49 AM EST 6:52 PM EST
Astronomical Twilight 6:17 AM EST 7:23 PM EST
Moon 9:19 AM EST (1/26) 9:41 PM EST (1/26)
Length of Visible Light 10h 57m
Length of Day
10h 00m
Waxing Crescent, 12% of the Moon is Illuminated
Jan 26
Waxing Crescent
Jan 30
First Quarter
Feb 7
Full
Feb 14
Last Quarter
Feb 21
New

Hourly Weather History & Observations

Time (EST) Temp. Windchill Dew Point Humidity Pressure Visibility Wind Dir Wind Speed Gust Speed Precip Events Conditions
12:53 AM 35.1 °F 32.2 °F 30.0 °F 82% 30.10 in 5.0 mi ENE 3.5 mph - N/A   Haze
1:53 AM 35.1 °F 31.0 °F 30.0 °F 82% 30.06 in 5.0 mi ENE 4.6 mph - 0.00 in   Haze
2:53 AM 35.1 °F 30.1 °F 30.0 °F 82% 30.02 in 5.0 mi East 5.8 mph - N/A   Haze
3:53 AM 37.0 °F 32.4 °F 30.9 °F 79% 30.00 in 6.0 mi ENE 5.8 mph - N/A   Haze
4:53 AM 37.0 °F 31.0 °F 30.9 °F 79% 29.96 in 3.0 mi NNE 8.1 mph - 0.06 in Rain Heavy Rain
5:07 AM 35.6 °F 29.9 °F 30.2 °F 81% 29.95 in 2.5 mi NNE 6.9 mph - 0.08 in Rain Heavy Rain
5:31 AM 35.6 °F 29.9 °F 30.2 °F 81% 29.94 in 2.0 mi NE 6.9 mph - 0.22 in Rain Heavy Rain
5:43 AM 35.6 °F 29.9 °F 32.0 °F 87% 29.93 in 1.8 mi NE 6.9 mph - 0.37 in Rain Heavy Rain
5:53 AM 36.0 °F 29.6 °F 32.0 °F 86% 29.94 in 2.5 mi ENE 8.1 mph - 0.42 in Rain Rain
6:02 AM 35.6 °F 31.7 °F 32.0 °F 87% 29.93 in 3.0 mi NNE 4.6 mph - 0.02 in Rain Rain
6:09 AM 35.6 °F 31.7 °F 32.0 °F 87% 29.92 in 3.0 mi NE 4.6 mph - 0.03 in Rain Rain
6:53 AM 37.0 °F - 33.1 °F 86% 29.94 in 3.0 mi Calm Calm - 0.07 in Rain Light Rain
7:31 AM 37.4 °F 32.8 °F 33.8 °F 87% 29.90 in 5.0 mi ENE 5.8 mph - 0.01 in   Overcast
7:53 AM 37.0 °F 31.6 °F 33.1 °F 86% 29.90 in 3.0 mi East 6.9 mph - 0.07 in Rain Rain
8:39 AM 37.4 °F 34.9 °F 33.8 °F 87% 29.87 in 2.5 mi East 3.5 mph - 0.02 in Rain Light Rain
8:48 AM 37.4 °F 32.8 °F 33.8 °F 87% 29.87 in 1.5 mi East 5.8 mph - 0.04 in Rain Rain
8:53 AM 37.9 °F 32.7 °F 33.1 °F 83% 29.88 in 1.5 mi East 6.9 mph - 0.05 in Rain Light Rain
8:59 AM 37.4 °F 33.8 °F 33.8 °F 87% 29.86 in 2.0 mi East 4.6 mph - 0.00 in Rain Light Rain
9:22 AM 37.4 °F 32.8 °F 33.8 °F 87% 29.85 in 1.5 mi East 5.8 mph - 0.01 in Rain Light Rain
9:53 AM 37.9 °F - 34.0 °F 86% 29.87 in 1.2 mi Calm Calm - 0.03 in Rain Light Rain
10:21 AM 37.4 °F 34.9 °F 33.8 °F 87% 29.83 in 1.2 mi East 3.5 mph - 0.02 in Rain Light Rain
10:53 AM 39.0 °F - 35.1 °F 86% 29.84 in 1.0 mi Calm Calm - 0.02 in   Overcast
11:19 AM 39.2 °F 35.9 °F 35.6 °F 87% 29.80 in 1.0 mi ESE 4.6 mph - N/A   Overcast
11:53 AM 41.0 °F - 37.0 °F 86% 29.80 in 1.8 mi Calm Calm - N/A   Overcast
12:01 PM 41.0 °F - 37.4 °F 87% 29.78 in 2.0 mi Calm Calm - N/A   Overcast
12:11 PM 41.0 °F - 37.4 °F 87% 29.77 in 1.5 mi Calm Calm - N/A   Overcast
12:20 PM 41.0 °F - 37.4 °F 87% 29.77 in 1.0 mi Calm Calm - N/A   Overcast
12:32 PM 41.0 °F - 37.4 °F 87% 29.75 in 0.8 mi Calm Calm - N/A   Overcast
12:53 PM 41.0 °F - 37.9 °F 89% 29.75 in 1.0 mi Calm Calm - 0.01 in   Overcast
1:20 PM 42.8 °F - 39.2 °F 87% 29.72 in 0.8 mi Calm Calm - N/A   Overcast
1:34 PM 42.8 °F - 39.2 °F 87% 29.70 in 1.0 mi Calm Calm - N/A   Overcast
1:53 PM 43.0 °F - 39.0 °F 86% 29.71 in 1.0 mi Calm Calm - N/A   Overcast
2:53 PM 46.0 °F - 42.1 °F 86% 29.70 in 1.8 mi Calm Calm - N/A   Overcast
3:03 PM 46.4 °F - 42.8 °F 87% 29.68 in 2.0 mi Calm Calm - N/A   Haze
3:15 PM 46.4 °F 45.2 °F 42.8 °F 87% 29.68 in 3.0 mi West 3.5 mph - N/A   Haze
3:27 PM 46.4 °F 45.2 °F 42.8 °F 87% 29.68 in 2.5 mi West 3.5 mph - N/A   Overcast
3:41 PM 46.4 °F 45.2 °F 42.8 °F 87% 29.68 in 1.5 mi West 3.5 mph - N/A   Overcast
3:53 PM 46.0 °F - 42.1 °F 86% 29.68 in 0.5 mi Calm Calm - N/A Fog Fog
4:53 PM 46.0 °F 43.1 °F 42.1 °F 86% 29.66 in 0.2 mi WNW 5.8 mph - N/A Fog Fog
5:31 PM 46.4 °F - 42.8 °F 87% 29.63 in 0.2 mi Calm Calm - 0.02 in Fog , Rain Light Rain
5:41 PM 46.4 °F - 42.8 °F 87% 29.64 in 0.5 mi Calm Calm - 0.02 in Fog , Rain Light Rain
5:53 PM 46.0 °F - 43.0 °F 89% 29.64 in 0.8 mi Calm Calm - 0.04 in Rain Rain
6:40 PM 44.6 °F - 42.8 °F 93% 29.61 in 0.8 mi Calm Calm - 0.03 in Rain Light Rain
6:53 PM 45.0 °F - 42.1 °F 90% 29.61 in 0.8 mi Calm Calm - 0.05 in Rain Light Rain
7:08 PM 46.4 °F - 42.8 °F 87% 29.58 in 1.0 mi Calm Calm - 0.03 in Rain Rain
7:18 PM 46.4 °F - 42.8 °F 87% 29.58 in 2.0 mi Calm Calm - 0.05 in Rain Light Rain
7:22 PM 46.4 °F - 42.8 °F 87% 29.58 in 3.0 mi Calm Calm - 0.05 in Rain Light Rain
7:30 PM 46.4 °F - 42.8 °F 87% 29.57 in 4.0 mi Calm Calm - 0.06 in Rain Light Rain
7:46 PM 46.4 °F - 42.8 °F 87% 29.57 in 2.0 mi Calm Calm - 0.10 in Rain Light Rain
7:53 PM 46.0 °F 43.1 °F 42.1 °F 86% 29.58 in 2.5 mi NW 5.8 mph - 0.11 in Rain Rain
8:13 PM 44.6 °F - 42.8 °F 93% 29.57 in 1.5 mi Calm Calm - 0.10 in Rain Heavy Rain
8:25 PM 44.6 °F 42.2 °F 41.0 °F 87% 29.56 in 1.8 mi WNW 4.6 mph - 0.16 in Rain Heavy Rain
8:30 PM 44.6 °F 43.1 °F 41.0 °F 87% 29.56 in 2.5 mi NW 3.5 mph - 0.18 in Rain Rain
8:39 PM 44.6 °F - 41.0 °F 87% 29.55 in 2.5 mi Calm Calm - 0.22 in Rain Rain
8:53 PM 45.0 °F 43.5 °F 41.0 °F 86% 29.55 in 3.0 mi NNW 3.5 mph - 0.27 in Rain Rain
9:48 PM 44.6 °F 43.1 °F 41.0 °F 87% 29.54 in 3.0 mi WNW 3.5 mph - 0.19 in Rain Rain
9:53 PM 45.0 °F 43.5 °F 41.0 °F 86% 29.55 in 3.0 mi WNW 3.5 mph - 0.21 in Rain Rain
10:53 PM 43.0 °F 37.7 °F 37.9 °F 82% 29.54 in 7.0 mi WNW 9.2 mph - 0.14 in Rain Light Rain
11:22 PM 42.8 °F 37.5 °F 37.4 °F 81% 29.54 in 8.0 mi WNW 9.2 mph - 0.05 in Rain Light Rain
11:53 PM 42.1 °F 37.1 °F 37.0 °F 82% 29.55 in 10.0 mi West 8.1 mph - 0.07 in Rain Light Rain